Flag for U.S.A. Weather past 2 weeks in Fort Wayne, Indiana, U.S.A.

Now
69 °F

Partly sunny.


Feels Like: 69 °F
Forecast: 67 / 86 °F
Wind: No wind

Location: Fort Wayne International Airport

Current Time: Sep 5, 2015 at 9:15:42 AM

Latest Report: Sep 5, 2015 at 8:54 AM


Visibility: 10 mi

Pressure: 30.14 "Hg

Humidity: 90%

Dew point: 66 °F

Location of Fort WayneLocation

Historic Weather in Fort Wayne — Graph

°F

Fort Wayne temperature yesterday

Maximum temperature yesterday: 85 °F (at 12:01 PM)
Minimum temperature yesterday: 65 °F (at 5:54 PM)
Average temperature yesterday: 71 °F

Past Weeks' High & Low Weather Summary

 TemperatureHumidityPressure
High89 °F (Sep 2, 2:54 PM)97% (Aug 30, 3:54 AM)30.24 "Hg (Aug 30, 3:54 AM)
Low50 °F (Aug 27, 5:54 AM)42% (Aug 21, 12:54 PM)29.82 "Hg (Aug 23, 4:54 PM)
Average70 °F76%30.06 "Hg
* Reported Aug 21 7:54 AM — Sep 5 7:54 AM, Fort Wayne, Weather by CustomWeather, © 2015

Note: Actual official high and low records may vary slightly from our data, if they occured in-between our weather recording intervals... More about our weather records

Advertising

Fort Wayne weather history for previous 24 hours

 ConditionsComfort  
Time TempWeatherWind HumidityBarometerVisibility
7:54 AM
Sat, Sep 5
65 °FPassing clouds.No wind94%30.12 "Hg10 mi
6:54 AM65 °FPartly cloudy.5 mph94%30.12 "Hg10 mi
5:54 AM66 °FPassing clouds.5 mph93%30.11 "Hg10 mi
4:54 AM66 °FMostly cloudy.3 mph93%30.09 "Hg10 mi
3:54 AM66 °FPassing clouds.5 mph93%30.08 "Hg10 mi
2:54 AM67 °FPartly cloudy.3 mph90%30.08 "Hg10 mi
1:54 AM68 °FPassing clouds.3 mph84%30.09 "Hg10 mi
12:54 AM68 °FPartly cloudy.6 mph84%30.09 "Hg10 mi
11:54 PM
Fri, Sep 4
68 °FPartly cloudy.8 mph87%30.07 "Hg10 mi
10:54 PM67 °FPartly cloudy.6 mph90%30.07 "Hg10 mi
9:54 PM68 °FPassing clouds.8 mph90%30.06 "Hg10 mi
8:54 PM68 °FPartly sunny.8 mph90%30.06 "Hg10 mi
7:54 PM68 °FBroken clouds.3 mph90%30.03 "Hg10 mi
6:54 PM66 °FLight rain. Partly sunny.No wind90%30.03 "Hg9 mi
5:54 PM65 °FThunderstorms. More clouds than sun.3 mph91%30.04 "Hg9 mi
5:02 PM66 °FStrong thunderstorms. Fog.24 mph87%30.08 "Hg2 mi
3:54 PM82 °FPartly sunny.12 mph72%29.98 "Hg10 mi
2:54 PM80 °FBroken clouds.5 mph69%30.01 "Hg10 mi
1:54 PM73 °FBroken clouds.8 mph81%30.02 "Hg10 mi
1:04 PM69 °FStrong thunderstorms. Cloudy.14 mph76%30.05 "Hg1 mi
12:01 PM85 °FThunderstorms. Scattered clouds.9 mph65%30.02 "Hg10 mi
10:54 AM82 °FScattered clouds.5 mph72%30.01 "Hg9 mi
9:54 AM76 °FBroken clouds.6 mph82%30.01 "Hg7 mi
Weather by CustomWeather, © 2015

See weather overviewHow to use our weather pages